Location: Arbon
(43.0005°N, 0.7472°E)
Time: 06:41:42
(UTC+00:00)

Courier 1B Rocket - All Passes

Search period start: 27 November 2020 00:00
Search period end: 07 December 2020 00:00
Orbit: 920 x 1202 km, 28.2° (Epoch: 26 November)

Date Brightness Start Highest point End Pass type
(mag) Time Alt. Az. Time Alt. Az. Time Alt. Az.
27 Nov - 05:55:25 10° SSW 06:00:27 19° SSE 06:05:22 10° ESE visible
27 Nov - 07:47:07 10° SW 07:53:07 25° S 07:58:52 10° SE daylight
27 Nov - 09:40:28 10° WSW 09:45:44 21° SSW 09:50:46 10° SSE daylight
28 Nov - 04:55:25 10° S 04:59:34 15° SSE 05:03:40 10° SE visible
28 Nov - 06:46:13 10° SW 06:52:11 24° S 06:57:58 10° ESE daylight
28 Nov - 08:39:05 10° WSW 08:44:53 24° S 08:50:26 10° SE daylight
28 Nov - 10:33:48 10° SW 10:37:19 14° SSW 10:40:44 10° S daylight
29 Nov - 03:56:27 10° S 03:58:43 11° SSE 04:00:58 10° SE visible
29 Nov - 05:45:31 10° SW 05:51:14 22° SSE 05:56:51 10° ESE visible
29 Nov - 07:37:52 10° SW 07:43:58 26° S 07:49:51 10° SE daylight
29 Nov - 09:31:45 10° WSW 09:36:33 18° SSW 09:41:10 10° SSE daylight
30 Nov - 04:45:08 10° SSW 04:50:19 19° SSE 04:55:27 10° ESE visible
30 Nov - 06:36:49 10° SW 06:43:00 26° S 06:49:02 10° SE visible
30 Nov - 08:30:08 10° WSW 08:35:42 22° SSW 08:41:04 10° SE daylight
30 Nov - 10:26:51 10° SW 10:28:03 10° SSW 10:29:15 10° SSW daylight
01 Dec - 03:45:12 10° SSW 03:49:25 16° SSE 03:53:40 10° SE visible
01 Dec - 05:35:57 10° SW 05:42:02 25° S 05:48:03 10° ESE visible
01 Dec - 07:28:46 10° WSW 07:34:47 25° S 07:40:38 10° SE daylight
01 Dec - 09:23:24 10° SW 09:27:19 15° SSW 09:31:07 10° S daylight
02 Dec - 02:46:18 10° S 02:48:35 11° SSE 02:50:53 10° SE visible
02 Dec - 04:35:20 10° SW 04:41:05 23° SSE 04:46:50 10° ESE visible
02 Dec - 06:27:36 10° SW 06:33:50 26° S 06:39:57 10° SE visible
02 Dec - 08:21:25 10° WSW 08:26:29 19° SSW 08:31:25 10° SSE daylight
03 Dec - 03:35:01 10° SSW 03:40:09 19° SSE 03:45:21 10° ESE visible
03 Dec - 05:26:37 10° SW 05:32:51 26° S 05:39:03 10° SE visible
03 Dec - 07:19:51 10° WSW 07:25:35 22° SSW 07:31:12 10° SE daylight
03 Dec - 09:16:07 10° SW 09:18:01 11° SSW 09:19:54 10° SSW daylight
04 Dec - 02:35:11 10° S 02:39:18 15° SSE 02:43:28 10° SE visible
04 Dec - 04:25:50 10° SW 04:31:52 25° S 04:37:58 10° ESE visible
04 Dec - 06:18:33 10° WSW 06:24:38 25° S 06:30:40 10° SE visible
04 Dec - 08:13:04 10° SW 08:17:13 15° SSW 08:21:18 10° S daylight
05 Dec - 01:36:31 10° S 01:38:30 11° SSE 01:40:29 10° SE visible
05 Dec - 03:25:18 10° SW 03:30:55 23° SSE 03:36:39 10° ESE visible
05 Dec - 05:17:28 10° SW 05:23:40 26° S 05:29:53 10° SE visible
05 Dec - 07:11:10 10° WSW 07:16:21 19° SSW 07:21:28 10° SSE daylight
06 Dec - 02:25:06 10° SSW 02:30:02 19° SSE 02:35:06 10° ESE visible
06 Dec - 04:16:34 10° SW 04:22:41 26° S 04:28:54 10° SE visible
06 Dec - 06:09:42 10° WSW 06:15:26 23° SSW 06:21:10 10° SE visible
06 Dec - 08:05:43 10° SW 08:07:55 11° SSW 08:10:06 10° S daylight
